NJU515D EGKB-EGLC

Flight info

Callsign NJU515D
Flight time 0h -4m
Altitude 7000
Route DET DCT GODLU
Aircraft C56X/M-SDFGLM3ORVWY/SB1

Departure

Time 2026-04-16 11:53
Airport London Biggin Hill Airport (EGKB)

Arrival

Time 2026-04-16 11:49
Airport London City Airport (EGLC)
Time Latitude Longitude Altitude Speed Heading
2026-04-16 11:48 51.33165 0.02968 561 ft 0 kts 22°
2026-04-16 11:52 51.33241 0.03047 554 ft 21 kts 35°
2026-04-16 11:52 51.33374 0.03206 545 ft 25 kts 47°
2026-04-16 11:52 51.33388 0.03314 543 ft 11 kts 107°
2026-04-16 11:52 51.33358 0.03413 543 ft 13 kts 143°
2026-04-16 11:53 51.33232 0.03348 547 ft 51 kts 206°
2026-04-16 11:53 51.32637 0.02889 589 ft 136 kts 206°
2026-04-16 11:53 51.31646 0.01974 1035 ft 198 kts 221°
2026-04-16 11:53 51.31070 0.00020 1468 ft 188 kts 267°
2026-04-16 11:54 51.31596 -0.01746 1996 ft 185 kts 313°
2026-04-16 11:54 51.32845 -0.02480 2397 ft 205 kts 353°
2026-04-16 11:54 51.34222 -0.01816 2413 ft 215 kts 33°
2026-04-16 11:54 51.35077 0.00060 2405 ft 210 kts 76°
2026-04-16 11:55 51.35017 0.02305 2411 ft 203 kts 115°
2026-04-16 11:55 51.34396 0.04258 2637 ft 194 kts 123°
2026-04-16 11:55 51.33781 0.06252 2907 ft 210 kts 122°
2026-04-16 11:55 51.33100 0.08416 3011 ft 223 kts 119°
2026-04-16 11:56 51.32721 0.10807 2988 ft 224 kts 96°
2026-04-16 11:56 51.33104 0.13222 2984 ft 231 kts 63°
2026-04-16 11:56 51.33624 0.14676 3012 ft 240 kts 59°
2026-04-16 11:56 51.34458 0.17024 3017 ft 244 kts 62°
2026-04-16 11:57 51.35286 0.19393 3010 ft 248 kts 61°
2026-04-16 11:57 51.36126 0.21823 3002 ft 248 kts 61°
2026-04-16 11:57 51.36958 0.24225 3004 ft 247 kts 61°
2026-04-16 11:57 51.37786 0.26627 3003 ft 246 kts 61°
2026-04-16 11:58 51.38596 0.29031 3002 ft 245 kts 62°
2026-04-16 11:58 51.39670 0.31137 2971 ft 244 kts 33°
2026-04-16 11:58 51.41231 0.32001 2982 ft 233 kts
2026-04-16 11:58 51.42751 0.32193 2978 ft 216 kts
2026-04-16 11:59 51.44199 0.32407 2976 ft 201 kts
2026-04-16 11:59 51.45568 0.32633 2978 ft 195 kts
2026-04-16 11:59 51.46906 0.32831 2976 ft 195 kts
2026-04-16 11:59 51.48212 0.32601 2966 ft 184 kts 329°
2026-04-16 12:00 51.49067 0.31238 2981 ft 174 kts 295°
2026-04-16 12:00 51.49500 0.29510 2999 ft 159 kts 287°
2026-04-16 12:00 51.49778 0.27837 2988 ft 153 kts 270°
2026-04-16 12:00 51.49825 0.26131 2984 ft 154 kts 271°
2026-04-16 12:01 51.49919 0.24444 2987 ft 152 kts 271°
2026-04-16 12:01 51.49978 0.22757 2986 ft 150 kts 270°
2026-04-16 12:01 51.50026 0.21093 2984 ft 151 kts 270°
2026-04-16 12:02 51.50113 0.18370 2696 ft 121 kts 268°
2026-04-16 12:02 51.50165 0.17001 2384 ft 114 kts 269°
2026-04-16 12:02 51.50210 0.15753 2104 ft 114 kts 266°
2026-04-16 12:02 51.50220 0.14794 1894 ft 114 kts 266°
2026-04-16 12:03 51.50267 0.13523 1609 ft 114 kts 269°
2026-04-16 12:03 51.50316 0.12250 1322 ft 112 kts 267°
2026-04-16 12:03 51.50336 0.11032 1047 ft 108 kts 269°
2026-04-16 12:03 51.50402 0.09818 766 ft 112 kts 271°
2026-04-16 12:04 51.50422 0.08532 492 ft 114 kts 266°
2026-04-16 12:04 51.50462 0.07216 202 ft 115 kts 273°
2026-04-16 12:04 51.50512 0.05935 19 ft 103 kts 272°
2026-04-16 12:04 51.50536 0.05065 26 ft 61 kts 272°
2026-04-16 12:05 51.50550 0.04681 24 ft 26 kts 273°
2026-04-16 12:05 51.50555 0.04486 22 ft 12 kts 257°
2026-04-16 12:05 51.50491 0.04411 20 ft 7 kts 265°
2026-04-16 12:05 51.50496 0.04377 20 ft 2 kts 290°
2026-04-16 12:06 51.50500 0.04356 19 ft 0 kts 276°
2026-04-16 12:06 51.50503 0.04258 19 ft 18 kts 274°
2026-04-16 12:06 51.50517 0.04176 18 ft 8 kts 279°
2026-04-16 12:07 51.50508 0.04077 18 ft 10 kts 216°